Regional Weather Roundup
Issued by NWS Austin/San Antonio, TX

Current Version | Previous Version | Text Only | Print | Product List | Glossary On
Versions: 1 2 3 4 5 6 7 8 9 10 11 12 13 14 15 16 17 18 19 20 21 22 23 24 25 26 27 28 29 30 31 32 33 34 35 36 37 38 39 40 41 42 43 44 45 46 47 48 49 50
000
ASUS44 KEWX 050802
RWREWX
SOUTH TEXAS REGIONAL WEATHER ROUNDUP
NATIONAL WEATHER SERVICE AUSTIN/SAN ANTONIO TX
300 AM CDT SUN JUL 05 2020

NOTE: "FAIR" INDICATED FEW OR NO CLOUDS BELOW 12,000 FEET WITH NO
SIGNIFICANT WEATHER AND/OR OBSTRUCTIONS TO VISIBILITY.

* - THESE STATIONS ARE NOT NWS OR FAA STATIONS...AND ARE NOT SUBJECT
    TO NWS AND FAA QUALITY CONTROL.

TXZ171-172-183>190-050900-
TEXAS HILL COUNTRY AND EDWARDS PLATEAU

CITY           SKY/WX    TMP DP  RH WIND       PRES   REMARKS
JUNCTION       CLEAR     82  66  58 S3        29.91R
*LLANO         CLEAR     75  64  69 CALM      29.91R
BURNET         CLEAR     79  65  62 S5        29.90S
*HORSESHOE BAY CLEAR     82  68  61 CALM      29.87S
*LAGO VISTA    CLEAR     77  71  81 S5        29.89S
*KERRVILLE     CLEAR     77  71  81 S7        29.92F
*FREDERICKSBRG CLEAR     78  65  65 SW6       29.92S
*ROCKSPRINGS   CLEAR     79  64  61 SE10G17   29.99S
*BOERNE        CLEAR     75  72  88 S5        29.92S
*CASTROVILLE   CLEAR     81  71  71 MISG      29.90S
HONDO          CLEAR     79  71  76 SE6       29.89S
*UVALDE          N/A     79  73  83 SE6       29.90R
DEL RIO        CLEAR     86  62  44 E8        29.84F
*LAUGHLIN AFB  NOT AVBL
*SPOFFORD      NOT AVBL
*EAGLE PASS    NOT AVBL
CARRIZO SPRGS  CLEAR     82  70  65 S9        29.84F
$$

TXZ173-191>194-202-209-217>225-228-050900-
CENTRAL AND SOUTH CENTRAL TEXAS

CITY           SKY/WX    TMP DP  RH WIND       PRES   REMARKS
GEORGETOWN     CLEAR     81  73  76 S9        29.88S
*TAYLOR        CLEAR     77  71  82 S7        29.86S
AUSTIN/BERGSTM PTCLDY    76  72  87 S5        29.86S
AUSTIN/MABRY   CLEAR     79  71  76 VRB3      29.87F
*PFLUGERVILLE  CLEAR     77  72  83 CALM      29.87F
SAN MARCOS     CLEAR     76  72  87 S8        29.88S
NEW BRAUNFELS  CLEAR     77  71  82 SW7       29.86F
*RANDOLPH AFB  CLEAR     78  71  80 SW6       29.87F
*SEGUIN        CLEAR     75  71  88 SW6       29.90F FOG
SAN ANTONIO    PTCLDY    80  70  71 S9        29.88F
STINSON FIELD  CLEAR     76  71  85 S5        29.86S
*KELLY FIELD   CLEAR     79  71  76 S6        29.86F
*PLEASANTON    CLEAR     77  73  88 S3        29.87S
*KENEDY        PTCLDY    77  74  92 S8        29.87S
*LA GRANGE     CLEAR     78  78  98 S6        29.85S
*GIDDINGS      CLEAR     79  73  82 S5        29.87F
*GONZALES      CLOUDY    76  76  99 S3        29.86S
$$

TXZ163>164-176>182-195>201-210>213-226-227-235-050900-
SOUTHEAST TEXAS

CITY           SKY/WX    TMP DP  RH WIND       PRES   REMARKS
COLLEGE STN    CLEAR     78  74  87 S7        29.85F
*BRYAN         CLEAR     80  75  86 S6        29.86F
*CALDWELL      CLEAR     78  74  88 S7        29.86F
*CROCKETT      NOT AVBL
*BRENHAM       CLEAR     78  75  90 SW6       29.87S
HUNTSVILLE     CLEAR     80  73  79 SW6       29.86S
CONROE         CLEAR     80  74  81 SW6       29.86F
HOUSTON BUSH   PTCLDY    81  75  82 SW7       29.86F
HOUSTON HOBBY  CLEAR     79  75  87 S6        29.86S
*HOUSTON SW AP CLEAR     75  75 100 CALM      29.87F FOG
PEARLAND       CLEAR     79  74  84 S3        29.87F
HOUSTON HOOKS  CLEAR     79  73  82 SW6       29.86F
ELLINGTON FLD  PTCLDY    79  75  89 SW8       29.85F
SUGAR LAND     CLEAR     78  76  93 SW6       29.85F
*HOUSTON EXEC    N/A     77  77 100 SW5       29.87F
*CLEVELAND MUN CLEAR     78  77  96 S3        29.86F FOG
*WHARTON       CLEAR     74  72  93 CALM      29.88S
*COLUMBUS      FAIR      75  74  97 S3        29.87F
*EAGLE LAKE    CLEAR     78  76  94 S5        29.86F
$$

TXZ214>216-236>238-050900-
THE UPPER TEXAS COAST

CITY           SKY/WX    TMP DP  RH WIND       PRES   REMARKS
*ORANGE        CLEAR     82  78  89 SW3       29.87S HX  90
PORT ARTHUR    CLEAR     79  78  97 SW6       29.84F
GALVESTON      PTCLDY    83  77  82 SW8       29.86F HX  92
ANGLETON       CLEAR     77  75  93 SW3       29.86F
*BAY CITY      CLEAR     77  76  97 S5        29.86F
PALACIOS       MOCLDY    83  77  82 S13       29.85F HX  92
$$

TXZ229>234-239>247-050900-
TEXAS COASTAL BEND AND RIO GRANDE PLAINS

CITY           SKY/WX    TMP DP  RH WIND       PRES   REMARKS
VICTORIA       PTCLDY    78  74  87 S6        29.86F
*BEEVILLE      CLEAR     78  78 100 S10       29.85F
ROCKPORT       PTCLDY    81  75  82 S7        29.86F
*PORT ARANSAS  CLEAR     81  77  89 S10G17    29.88F
*PORT LAVACA   CLEAR     78  75  92 S5        29.86F
*INGLESIDE     CLEAR     82  78  89 S14       29.86F HX  90
CORPUS CHRISTI CLEAR     75  75 100 S5        29.87F
CORPUS NAS     CLEAR     79  78  97 S12       29.87F
*ROBSTOWN      CLEAR     76  73  91 S6        29.87F
ALICE          CLEAR     77  75  93 S8        29.87F
KINGSVILLE NAS CLEAR     76  75  97 S8        29.87F
COTULLA        CLEAR     82  74  76 S8        29.86S
LAREDO         CLEAR     80  72  76 SE13      29.86F
$$

TXZ248>255-050900-
DEEP SOUTH TEXAS

CITY           SKY/WX    TMP DP  RH WIND       PRES   REMARKS
BROWNSVILLE    CLEAR     78  76  93 S7        29.88F
PORT ISABEL    CLEAR     80  75  84 S10       29.88F
HARLINGEN      CLEAR     78  76  93 S8        29.88F
*HEBBRONVILLE  CLEAR     74  72  91 S5        29.90F
MCALLEN        CLEAR     79  75  87 SE9       29.88F
*WESLACO       MOCLDY    77  74  91 S7        29.87F
FALFURRIAS     NOT AVBL
EDINBURG       CLEAR     75  73  92 SE3       29.88F
*ZAPATA        CLEAR     81  75  80 SE7       29.88F
$$

TXZ213>215-236>238-242>244-246-247-251-254-255-050900-
CMAN STATIONS

STATION/POSITION TIME  TEMP    WIND        PRES    WAVE
                       AIR SEA DIR/SP/G            HT/PER
                 (UTC) (F)     (DEG/KT/KT) (MB)    (FT/S)
SABINE PASS      0730   81 88  240/  3/  7 1012.6
NORTH JETTY/GLS  0718   85 86  220/ 11/ 12 1010.1
EAGLE POINT      0730   81 89  230/  6/ 10 1010.6
MORGANS POINT    0730   81 87  230/  3/  7 1011.1
PORT O`CONNOR    0724   81 88  200/ 10/ 12 1011.0
PORT ARANSAS     0700   81 82  170/ 16/ 18 1011.5
MALAQUITE BEACH  0718   81     170/ 16/ 18   N/A
BAFFIN BAY       0724   81 86  150/ 15/ 18 1011.9
PORT ISABEL      0724   81 84  170/  7/ 10 1014.0
$$



USA.gov is the U.S. government's official web portal to all federal, state and local government web resources and services.